Crane Lake, MN

10:29 AM CDT on June 28, 2017 (GMT -0500)
Crane Lake

Weather History for KCDD - April, 2014

Change the Weather History Date:

Sunday, April 6, 2014

  Actual Average Record
Temperature  
Mean Temperature 40 °F -  
Max Temperature 55 °F 42 °F 60 °F (2012)
Min Temperature 24 °F 23 °F 3 °F (2003)
Degree Days  
Heating Degree Days 26    
Moisture  
Dew Point 27 °F    
Average Humidity 64    
Maximum Humidity 87    
Minimum Humidity 28    
Precipitation  
Precipitation 0.00 in - - ()
Sea Level Pressure  
Sea Level Pressure 29.85 in    
Wind  
Wind Speed 3 mph (NE)    
Max Wind Speed 8 mph    
Max Gust Speed -    
Visibility 10 miles    
Events Rain    
Averages and records for this station are not official NWS values.
T = Trace of Precipitation, MM = Missing Value Source: NWS Daily Summary

Daily Weather History Graph

Daily Weather History Graph

Search for Another Location

Airport or City:

Trip Planner

Search our weather history database for the weather conditions in past years. The results will help you decide how hot, cold, wet, or windy it might be!

Date:

Astronomy

Apr. 06, 2014 Rise Set
Actual Time 6:37 AM CDT 7:47 PM CDT
Civil Twilight 6:05 AM CDT 8:19 PM CDT
Nautical Twilight 5:27 AM CDT 8:58 PM CDT
Astronomical Twilight 4:46 AM CDT 9:39 PM CDT
Moon 11:24 AM CDT (4/6) 1:59 AM CDT (4/6)
Length of Visible Light 14h 13m
Length of Day
13h 09m
Waxing Crescent, 44% of the Moon is Illuminated
Apr 6
Waxing Crescent
Apr 7
First Quarter
Apr 15
Full
Apr 22
Last Quarter
Apr 29
New

Hourly Weather History & Observations

Time (CDT) Temp. Windchill Dew Point Humidity Pressure Visibility Wind Dir Wind Speed Gust Speed Precip Events Conditions
12:08 AM 37.4 °F 32.1 °F 30.2 °F 75% 29.89 in 10.0 mi South 6.9 mph - N/A   Overcast
12:27 AM 37.4 °F 32.8 °F 30.2 °F 75% 29.89 in 10.0 mi SW 5.8 mph - N/A   Overcast
12:48 AM 37.4 °F 32.8 °F 30.2 °F 75% 29.89 in 10.0 mi South 5.8 mph - N/A   Overcast
1:08 AM 37.4 °F 33.8 °F 30.2 °F 75% 29.88 in 10.0 mi SSW 4.6 mph - N/A   Overcast
1:27 AM 37.4 °F 33.8 °F 30.2 °F 75% 29.88 in 10.0 mi South 4.6 mph - N/A   Overcast
1:48 AM 37.4 °F 33.8 °F 30.2 °F 75% 29.88 in 10.0 mi South 4.6 mph - N/A   Overcast
2:07 AM 37.4 °F - 30.2 °F 75% 29.88 in 10.0 mi Calm Calm - N/A   Overcast
2:27 AM 37.4 °F - 30.2 °F 75% 29.88 in 10.0 mi Calm Calm - N/A   Overcast
2:48 AM 35.6 °F - 28.4 °F 75% 29.89 in 10.0 mi Calm Calm - N/A   Light Drizzle
3:08 AM 33.8 °F - 28.4 °F 81% 29.89 in 10.0 mi Calm Calm - N/A Rain Light Rain
3:28 AM 33.8 °F - 28.4 °F 81% 29.89 in 10.0 mi Calm Calm - N/A   Overcast
3:47 AM 33.8 °F - 28.4 °F 81% 29.89 in 10.0 mi Calm Calm - N/A   Overcast
4:07 AM 32.0 °F - 26.6 °F 80% 29.89 in 10.0 mi Calm Calm - N/A   Overcast
4:27 AM 32.0 °F - 26.6 °F 80% 29.88 in 10.0 mi Calm Calm - N/A   Overcast
4:47 AM 30.2 °F - 26.6 °F 86% 29.88 in 10.0 mi Calm Calm - N/A   Overcast
5:08 AM 30.2 °F - 26.6 °F 86% 29.88 in 10.0 mi Calm Calm - N/A   Overcast
5:27 AM 30.2 °F - 26.6 °F 86% 29.88 in 10.0 mi Calm Calm - N/A   Overcast
5:47 AM 28.4 °F - 24.8 °F 86% 29.88 in 10.0 mi Calm Calm - N/A   Scattered Clouds
6:11 AM 26.6 °F - 23.0 °F 86% 29.88 in 10.0 mi Calm Calm - N/A   Scattered Clouds
6:27 AM 26.6 °F - 21.2 °F 80% 29.88 in 7.0 mi Calm Calm - N/A   Clear
6:47 AM 24.8 °F - 21.2 °F 86% 29.89 in 7.0 mi Calm Calm - N/A   Clear
7:07 AM 24.8 °F - 21.2 °F 86% 29.89 in 7.0 mi Calm Calm - N/A   Scattered Clouds
7:28 AM 26.6 °F - 21.2 °F 80% 29.89 in 7.0 mi Calm Calm - N/A   Scattered Clouds
7:48 AM 26.6 °F - 23.0 °F 86% 29.89 in 7.0 mi Calm Calm - N/A   Scattered Clouds
8:08 AM 28.4 °F - 24.8 °F 86% 29.89 in 10.0 mi Calm Calm - N/A   Scattered Clouds
8:28 AM 32.0 °F - 28.4 °F 87% 29.89 in 10.0 mi Calm Calm - N/A   Scattered Clouds
8:47 AM 35.6 °F - 32.0 °F 87% 29.89 in 10.0 mi Calm Calm - N/A   Mostly Cloudy
9:07 AM 42.8 °F 41.1 °F 37.4 °F 81% 29.88 in 10.0 mi NNE 3.5 mph - N/A   Mostly Cloudy
9:28 AM 42.8 °F 41.1 °F 33.8 °F 70% 29.88 in 10.0 mi North 3.5 mph - N/A   Mostly Cloudy
9:48 AM 42.8 °F 40.1 °F 33.8 °F 70% 29.88 in 10.0 mi North 4.6 mph - N/A   Mostly Cloudy
10:08 AM 44.6 °F 40.7 °F 32.0 °F 61% 29.88 in 10.0 mi North 6.9 mph - N/A   Scattered Clouds
10:27 AM 44.6 °F 40.2 °F 30.2 °F 57% 29.88 in 10.0 mi NNW 8.1 mph - N/A   Scattered Clouds
10:47 AM 46.4 °F 44.3 °F 30.2 °F 53% 29.87 in 10.0 mi North 4.6 mph - N/A   Scattered Clouds
11:08 AM 48.2 °F - 33.8 °F 58% 29.87 in 10.0 mi NNE 4.6 mph - N/A   Clear
11:28 AM 50.0 °F - 30.2 °F 47% 29.86 in 10.0 mi NNW 5.8 mph - N/A   Clear
11:48 AM 50.0 °F - 30.2 °F 47% 29.86 in 10.0 mi North 4.6 mph - N/A   Clear
12:11 PM 51.8 °F - 30.2 °F 44% 29.85 in 10.0 mi NNW 4.6 mph - N/A   Scattered Clouds
12:28 PM 51.8 °F - 28.4 °F 41% 29.85 in 10.0 mi North 4.6 mph - N/A   Mostly Cloudy
12:48 PM 48.2 °F - 28.4 °F 46% 29.85 in 10.0 mi North 3.5 mph - N/A   Scattered Clouds
1:07 PM 53.6 °F - 32.0 °F 44% 29.84 in 10.0 mi SE 3.5 mph - N/A   Clear
1:28 PM 55.4 °F - 30.2 °F 38% 29.84 in 10.0 mi Calm Calm - N/A   Scattered Clouds
1:47 PM 55.4 °F - 28.4 °F 36% 29.83 in 10.0 mi Calm Calm - N/A   Scattered Clouds
2:08 PM 55.4 °F - 26.6 °F 33% 29.83 in 10.0 mi Calm Calm - N/A   Mostly Cloudy
2:27 PM 53.6 °F - 24.8 °F 33% 29.82 in 10.0 mi East 3.5 mph - N/A   Overcast
2:48 PM 53.6 °F - 24.8 °F 33% 29.83 in 10.0 mi East 3.5 mph - N/A   Mostly Cloudy
3:08 PM 55.4 °F - 26.6 °F 33% 29.82 in 10.0 mi NE 3.5 mph - N/A   Overcast
3:28 PM 55.4 °F - 23.0 °F 29% 29.81 in 10.0 mi Calm Calm - N/A   Scattered Clouds
3:47 PM 53.6 °F - 21.2 °F 28% 29.81 in 10.0 mi SSE 3.5 mph - N/A   Mostly Cloudy
4:08 PM 55.4 °F - 23.0 °F 29% 29.81 in 10.0 mi Calm Calm - N/A   Mostly Cloudy
4:28 PM 53.6 °F - 24.8 °F 33% 29.81 in 10.0 mi Calm Calm - N/A   Overcast
4:47 PM 53.6 °F - 23.0 °F 30% 29.80 in 10.0 mi Calm Calm - N/A   Mostly Cloudy
5:08 PM 51.8 °F - 26.6 °F 38% 29.80 in 10.0 mi Calm Calm - N/A   Overcast
5:28 PM 51.8 °F - 28.4 °F 41% 29.81 in 10.0 mi Calm Calm - N/A   Overcast
5:47 PM 51.8 °F - 28.4 °F 41% 29.81 in 10.0 mi South 4.6 mph - N/A   Overcast
6:08 PM 48.2 °F - 28.4 °F 46% 29.82 in 10.0 mi SE 4.6 mph - N/A   Overcast
6:48 PM 48.2 °F - 30.2 °F 50% 29.81 in 10.0 mi SSE 5.8 mph - N/A   Scattered Clouds
7:07 PM 46.4 °F - 30.2 °F 53% 29.82 in 10.0 mi Calm Calm - N/A   Clear
7:27 PM 42.8 °F - 28.4 °F 57% 29.82 in 10.0 mi Calm Calm - N/A   Clear
7:48 PM 37.4 °F - 26.6 °F 65% 29.82 in 10.0 mi Calm Calm - N/A   Scattered Clouds
8:08 PM 35.6 °F - 26.6 °F 70% 29.83 in 10.0 mi Calm Calm - N/A   Overcast
8:27 PM 33.8 °F - 24.8 °F 70% 29.83 in 10.0 mi Calm Calm - N/A   Mostly Cloudy
8:47 PM 33.8 °F - 24.8 °F 70% 29.83 in 10.0 mi Calm Calm - N/A   Scattered Clouds
9:08 PM 30.2 °F - 23.0 °F 75% 29.83 in 10.0 mi Calm Calm - N/A   Clear
9:27 PM 28.4 °F - 21.2 °F 74% 29.83 in 10.0 mi Calm Calm - N/A   Clear
9:47 PM 28.4 °F - 21.2 °F 74% 29.83 in 10.0 mi Calm Calm - N/A   Clear
10:07 PM 26.6 °F - 21.2 °F 80% 29.83 in 10.0 mi Calm Calm - N/A   Clear
10:28 PM 26.6 °F - 21.2 °F 80% 29.83 in 10.0 mi Calm Calm - N/A   Clear
10:48 PM 26.6 °F - 21.2 °F 80% 29.83 in 10.0 mi Calm Calm - N/A   Clear
11:08 PM 26.6 °F - 21.2 °F 80% 29.83 in 10.0 mi Calm Calm - N/A   Clear
11:27 PM 26.6 °F - 23.0 °F 86% 29.83 in 10.0 mi Calm Calm - N/A   Clear
11:47 PM 28.4 °F - 24.8 °F 86% 29.83 in 10.0 mi Calm Calm - N/A   Clear